SEGOL ESSB-ESSB

Flight info

Callsign SEGOL
Flight time N/A
Altitude 1200
Route VFR STOCKHOLM CITY
Aircraft PA24/L-SDE3FGHIRWY/LB1

Departure

Time 2026-05-07 15:32
Airport Stockholm-Bromma Airport (ESSB)

Arrival

Time N/A
Airport Stockholm-Bromma Airport (ESSB)
Time Latitude Longitude Altitude Speed Heading
2026-05-07 15:16 59.35928 17.93991 25 ft 0 kts 238°
2026-05-07 15:25 59.35898 17.93983 25 ft 12 kts 154°
2026-05-07 15:25 59.35794 17.94063 24 ft 13 kts 192°
2026-05-07 15:25 59.35771 17.93987 27 ft 5 kts 266°
2026-05-07 15:25 59.35768 17.93923 28 ft 5 kts 262°
2026-05-07 15:26 59.35765 17.93768 29 ft 20 kts 295°
2026-05-07 15:26 59.35846 17.93556 29 ft 18 kts 303°
2026-05-07 15:26 59.35928 17.93327 32 ft 27 kts 305°
2026-05-07 15:26 59.35942 17.93146 30 ft 11 kts 261°
2026-05-07 15:27 59.35968 17.93015 29 ft 11 kts 309°
2026-05-07 15:27 59.35971 17.92960 28 ft 0 kts 144°
2026-05-07 15:30 59.35967 17.92916 27 ft 9 kts 288°
2026-05-07 15:30 59.35936 17.92843 25 ft 15 kts 202°
2026-05-07 15:31 59.35875 17.92946 24 ft 13 kts 131°
2026-05-07 15:31 59.35773 17.93229 21 ft 62 kts 123°
2026-05-07 15:31 59.35521 17.93996 285 ft 68 kts 119°
2026-05-07 15:31 59.35258 17.94860 630 ft 74 kts 121°
2026-05-07 15:32 59.35034 17.95803 1031 ft 83 kts 102°
2026-05-07 15:32 59.35097 17.97140 1139 ft 112 kts 79°
2026-05-07 15:32 59.35423 17.98671 1272 ft 128 kts 67°
2026-05-07 15:32 59.35858 18.00240 1391 ft 136 kts 65°
2026-05-07 15:33 59.36335 18.01890 1470 ft 142 kts 63°
2026-05-07 15:33 59.36859 18.03571 1517 ft 145 kts 61°
2026-05-07 15:33 59.37392 18.05232 1606 ft 146 kts 62°
2026-05-07 15:33 59.37950 18.06909 1667 ft 147 kts 54°
2026-05-07 15:34 59.38692 18.08379 1626 ft 154 kts 42°
2026-05-07 15:34 59.39553 18.09613 1662 ft 154 kts 37°
2026-05-07 15:34 59.40453 18.10805 1663 ft 155 kts 36°
2026-05-07 15:34 59.41375 18.11915 1682 ft 156 kts 33°
2026-05-07 15:35 59.42303 18.12973 1678 ft 156 kts 32°
2026-05-07 15:35 59.43259 18.13988 1692 ft 154 kts 26°
2026-05-07 15:35 59.44307 18.14190 1676 ft 157 kts 354°
2026-05-07 15:35 59.45405 18.14406 1683 ft 157 kts 10°
2026-05-07 15:36 59.46484 18.14734 1686 ft 160 kts 12°
2026-05-07 15:36 59.47479 18.15744 1683 ft 159 kts 37°
2026-05-07 15:36 59.48392 18.16929 1683 ft 159 kts 35°
2026-05-07 15:36 59.49310 18.18131 1682 ft 157 kts 36°
2026-05-07 15:37 59.50215 18.19317 1647 ft 154 kts 36°
2026-05-07 15:37 59.51113 18.20470 1647 ft 153 kts 35°
2026-05-07 15:37 59.51992 18.21586 1653 ft 151 kts 35°
2026-05-07 15:37 59.52870 18.22713 1660 ft 150 kts 36°
2026-05-07 15:38 59.53732 18.23834 1661 ft 150 kts 36°
2026-05-07 15:38 59.54616 18.24981 1662 ft 150 kts 36°
2026-05-07 15:38 59.55496 18.26119 1662 ft 151 kts 35°
2026-05-07 15:38 59.56359 18.27234 1663 ft 150 kts 36°
2026-05-07 15:39 59.57227 18.28366 1655 ft 149 kts 36°
2026-05-07 15:39 59.58190 18.29257 1496 ft 159 kts
2026-05-07 15:39 59.59229 18.28818 1513 ft 154 kts 329°
2026-05-07 15:39 59.60009 18.27359 1443 ft 156 kts 304°
2026-05-07 15:40 59.60600 18.25601 1390 ft 155 kts 305°
2026-05-07 15:40 59.61186 18.23916 1379 ft 136 kts 301°
2026-05-07 15:40 59.61692 18.22460 1381 ft 128 kts 301°
2026-05-07 15:40 59.62199 18.20964 1393 ft 133 kts 293°
2026-05-07 15:41 59.62540 18.19278 1396 ft 134 kts 286°
2026-05-07 15:41 59.62859 18.17549 1397 ft 132 kts 285°
2026-05-07 15:41 59.63154 18.15837 1400 ft 131 kts 285°
2026-05-07 15:41 59.63440 18.14148 1400 ft 130 kts 285°